Weather reports worldwide

Advertisment
Büchel (Flugplatz), Germany (10613): temperature & dewpoint: 12.02.2020 10:00:00 - 18.02.2020 10:00:00 (CET)Büchel (Flugplatz), Germany (10613): wind speed & gusts: 12.02.2020 10:00:00 - 18.02.2020 10:00:00 (CET)Büchel (Flugplatz), Germany (10613): wind direction: 12.02.2020 10:00:00 - 18.02.2020 10:00:00 (CET)Büchel (Flugplatz), Germany (10613): reduced air pressure: 12.02.2020 10:00:00 - 18.02.2020 10:00:00 (CET)Büchel (Flugplatz), Germany (10613): visibility: 12.02.2020 10:00:00 - 18.02.2020 10:00:00 (CET)
Date & Time tt [°C] td [°C] ff [km/h] ff [kn] fx [km/h] fx [kn] dd ppp [hPa] vv [km]
18.02.2020 10:00:00 2,8 0,8 25 14 - - WSW 1025,8 25
18.02.2020 09:00:00 2,4 1,1 18 10 - - WSW 1025,6 20
18.02.2020 08:00:00 2,4 1,0 22 12 - - SW 1024,9 8
18.02.2020 07:00:00 2,5 0,9 22 12 - - WSW 1024,0 15
18.02.2020 06:00:00 2,7 0,9 22 12 - - WSW 1023,4 14
18.02.2020 05:00:00 2,4 0,9 22 12 47 25 WSW 1022,9 14
18.02.2020 04:00:00 3,0 1,4 22 12 - - WSW 1022,4 13
18.02.2020 03:00:00 3,8 1,2 29 16 - - WSW 1022,2 3,8
18.02.2020 02:00:00 4,0 1,8 22 12 - - SW 1021,9 13
18.02.2020 01:00:00 4,3 1,3 25 14 - - WSW 1021,0 13
18.02.2020 00:00:00 4,6 1,2 25 14 50 27 WSW 1020,0 14
17.02.2020 23:00:00 4,6 2,0 29 16 54 29 WSW 1019,2 13
17.02.2020 22:00:00 4,8 2,8 29 16 - - SW 1018,4 13
17.02.2020 21:00:00 3,5 2,6 18 10 - - SW 1018,2 13
17.02.2020 20:00:00 2,9 1,8 18 10 - - SW 1018,2 14
17.02.2020 19:00:00 3,1 1,6 22 12 - - WSW 1017,5 15
17.02.2020 18:00:00 3,6 1,3 22 12 54 29 W 1016,9 6
17.02.2020 17:00:00 6,8 2,0 22 12 47 25 SW 1015,4 40
17.02.2020 16:00:00 6,6 3,2 22 12 - - SW 1015,3 40
17.02.2020 15:00:00 6,6 2,8 25 14 - - SW 1015,5 40
17.02.2020 14:00:00 5,8 2,8 22 12 - - SW 1015,8 40
17.02.2020 13:00:00 5,3 1,9 29 16 - - SW 1016,4 35
17.02.2020 12:00:00 5,2 2,3 25 14 50 27 SW 1016,6 30
17.02.2020 11:00:00 5,0 3,5 22 12 - - SW 1016,2 30
17.02.2020 10:00:00 4,7 3,6 22 12 - - SW 1015,9 25
17.02.2020 09:00:00 4,6 3,7 22 12 - - SW 1016,1 25
17.02.2020 08:00:00 4,7 3,9 22 12 - - SW 1015,8 35
17.02.2020 07:00:00 4,5 3,7 22 12 - - SW 1015,8 35
17.02.2020 06:00:00 4,4 3,5 22 12 - - SW 1016,0 35
17.02.2020 05:00:00 4,3 3,0 22 12 - - SW 1015,7 15
17.02.2020 04:00:00 4,3 2,4 29 16 - - WSW 1015,4 15
17.02.2020 03:00:00 4,7 2,3 29 16 50 27 SW 1014,3 16
17.02.2020 02:00:00 5,0 3,2 29 16 54 29 W 1013,7 6
17.02.2020 01:00:00 6,3 4,7 25 14 - - W 1011,8 7
17.02.2020 00:00:00 6,9 4,9 29 16 61 33 W 1011,0 7
16.02.2020 23:00:00 10,7 6,9 36 19 76 41 SW 1007,8 1,9
16.02.2020 22:00:00 12,5 4,7 47 25 - - SW 1005,9 17
16.02.2020 21:00:00 12,2 4,3 43 23 68 37 SW 1005,3 18
16.02.2020 20:00:00 12,1 4,1 43 23 68 37 SW 1005,7 17
16.02.2020 19:00:00 12,1 3,6 40 21 - - SW 1006,0 18
16.02.2020 18:00:00 12,8 3,6 43 23 83 45 SW 1005,5 19
16.02.2020 17:00:00 14,0 3,5 47 25 83 45 SW 1005,2 20
16.02.2020 16:00:00 14,4 4,0 40 21 - - SW 1005,8 21
16.02.2020 15:00:00 13,8 4,2 43 23 83 45 SW 1006,4 20
16.02.2020 14:00:00 13,4 3,6 47 25 76 41 SW 1006,9 23
16.02.2020 13:00:00 11,8 3,7 32 18 - - SW 1008,8 20
16.02.2020 12:00:00 11,4 3,7 40 21 65 35 SW 1009,2 19
16.02.2020 11:00:00 9,9 4,9 40 21 65 35 SW 1009,7 16
16.02.2020 10:00:00 8,8 5,7 40 21 - - SW 1011,0 11
16.02.2020 09:00:00 8,2 6,1 40 21 61 33 SW 1011,6 6
16.02.2020 08:00:00 8,3 5,2 36 19 65 35 SW 1011,6 4,7
16.02.2020 07:00:00 8,8 3,6 40 21 - - SW 1011,6 7
16.02.2020 06:00:00 8,9 3,1 32 18 47 25 SSW 1012,6 15
16.02.2020 05:00:00 8,7 3,2 25 14 - - SW 1012,9 16
16.02.2020 04:00:00 8,7 3,1 29 16 - - SW 1013,4 16
16.02.2020 03:00:00 8,3 2,9 29 16 47 25 SW 1014,0 15
16.02.2020 02:00:00 7,9 2,7 32 18 54 29 SW 1014,5 16
16.02.2020 01:00:00 7,4 2,7 25 14 - - SW 1015,2 15
16.02.2020 00:00:00 7,3 2,8 29 16 47 25 SW 1015,5 15
15.02.2020 23:00:00 7,3 2,6 29 16 47 25 SW 1015,7 16
15.02.2020 22:00:00 7,2 2,3 29 16 - - SW 1016,9 16
15.02.2020 21:00:00 6,9 1,8 25 14 - - SW 1017,3 17
15.02.2020 20:00:00 6,2 2,6 18 10 - - SSW 1017,6 15
15.02.2020 19:00:00 6,6 2,9 22 12 - - SSW 1017,4 15
15.02.2020 18:00:00 6,6 2,7 14 8 - - SSW 1017,6 15
15.02.2020 17:00:00 7,7 2,6 25 14 - - S 1018,1 16
15.02.2020 16:00:00 8,4 3,0 25 14 - - SSW 1018,4 19
15.02.2020 15:00:00 8,3 3,3 32 18 47 25 SSW 1019,2 20
15.02.2020 14:00:00 7,6 2,9 36 19 50 27 SW 1019,6 16
15.02.2020 13:00:00 6,9 3,3 25 14 - - SW 1020,9 13
15.02.2020 12:00:00 5,9 3,3 22 12 - - SW 1022,0 12
15.02.2020 11:00:00 5,2 3,1 18 10 - - SW 1022,3 11
15.02.2020 10:00:00 4,2 2,6 18 10 - - SW 1023,2 12
15.02.2020 09:00:00 3,5 2,2 14 8 - - SW 1023,5 12
15.02.2020 08:00:00 3,3 2,0 14 8 - - SW 1023,1 13
15.02.2020 07:00:00 3,2 2,0 22 12 - - SW 1023,1 13
15.02.2020 06:00:00 3,1 1,9 14 8 - - SW 1023,6 13
15.02.2020 05:00:00 3,2 2,0 14 8 - - WSW 1023,9 12
15.02.2020 04:00:00 3,3 2,0 14 8 - - WSW 1024,1 13
15.02.2020 03:00:00 4,1 2,2 18 10 - - SW 1024,0 13
15.02.2020 02:00:00 4,4 2,3 18 10 - - SW 1024,5 14
15.02.2020 01:00:00 4,8 2,5 18 10 - - SW 1024,7 13
15.02.2020 00:00:00 4,6 2,4 18 10 - - WSW 1025,3 13
14.02.2020 23:00:00 4,6 2,6 18 10 - - WSW 1025,4 13
14.02.2020 22:00:00 4,4 2,7 14 8 - - SW 1025,6 13
14.02.2020 21:00:00 4,6 2,4 14 8 - - WSW 1025,3 15
14.02.2020 20:00:00 5,1 2,3 14 8 - - SW 1025,4 14
14.02.2020 19:00:00 5,0 1,9 11 6 - - WSW 1024,8 15
14.02.2020 18:00:00 5,2 1,8 14 8 - - SW 1024,1 16
14.02.2020 17:00:00 5,3 1,3 18 10 - - WSW 1023,6 16
14.02.2020 16:00:00 5,2 1,3 14 8 - - W 1023,2 16
14.02.2020 15:00:00 5,0 0,9 18 10 - - W 1023,1 16
14.02.2020 14:00:00 4,8 1,2 14 8 - - W 1022,7 16
14.02.2020 13:00:00 4,3 0,8 18 10 - - W 1022,5 30
14.02.2020 12:00:00 3,8 1,0 18 10 - - WNW 1022,2 10
14.02.2020 11:00:00 3,4 1,1 14 8 - - W 1021,4 30
14.02.2020 10:00:00 3,1 1,1 11 6 - - W 1020,5 15
14.02.2020 09:00:00 2,8 1,0 11 6 - - W 1019,6 10
14.02.2020 08:00:00 3,3 0,5 18 10 47 25 W 1017,6 20
14.02.2020 07:00:00 3,1 1,7 22 12 - - WNW 1016,4 10
14.02.2020 06:00:00 3,2 2,0 14 8 - - W 1014,9 10
14.02.2020 05:00:00 3,5 2,2 18 10 - - WSW 1013,4 7
14.02.2020 04:00:00 3,1 1,2 11 6 - - W 1012,3 14
14.02.2020 03:00:00 4,1 2,4 22 12 - - WNW 1011,3 14
14.02.2020 02:00:00 4,4 2,3 18 10 - - W 1009,5 14
14.02.2020 01:00:00 4,2 2,6 14 8 - - W 1008,0 7
14.02.2020 00:00:00 4,2 2,5 18 10 - - WNW 1006,0 7
13.02.2020 23:00:00 3,8 2,9 22 12 50 27 W 1003,7 8
13.02.2020 22:00:00 4,3 3,3 25 14 - - WSW 1001,4 5
13.02.2020 21:00:00 3,8 3,3 25 14 - - SSW 1000,3 4,3
13.02.2020 20:00:00 3,4 2,7 18 10 - - SSW 1000,6 3,7
13.02.2020 19:00:00 3,1 2,1 22 12 - - SSW 1000,4 9
13.02.2020 18:00:00 3,5 2,5 25 14 - - SW 1000,5 15
13.02.2020 17:00:00 3,7 3,0 22 12 - - SW 1000,4 7
13.02.2020 16:00:00 3,5 2,8 22 12 - - SW 1000,8 7
13.02.2020 15:00:00 2,6 1,9 25 14 - - SSW 1001,0 8
13.02.2020 14:00:00 1,1 0,5 14 8 - - SW 1003,3 3,0
13.02.2020 13:00:00 1,4 0,4 21 11 - - SW 1003,6 4,0
13.02.2020 12:00:00 2,2 -0,4 35 19 61 33 SSW 1004,8 4,5
13.02.2020 11:00:00 3,2 -1,5 32 18 50 27 S 1006,0 20
13.02.2020 10:00:00 2,1 -0,6 25 14 - - S 1008,4 20
13.02.2020 09:00:00 1,5 -0,2 25 14 - - S 1010,3 20
13.02.2020 08:00:00 1,1 -0,3 18 10 - - S 1011,9 15
13.02.2020 07:00:00 -0,1 -0,6 18 10 - - SSW 1014,1 4,5
13.02.2020 06:00:00 0,0 -0,4 18 10 - - SSW 1015,3 1,5
13.02.2020 05:00:00 0,0 -0,5 11 6 - - SW 1016,0 9
13.02.2020 04:00:00 -0,1 -0,6 18 10 - - SW 1017,1 11
13.02.2020 03:00:00 -0,2 -0,8 18 10 - - SW 1018,0 12
13.02.2020 02:00:00 -0,3 -0,7 14 8 - - WSW 1018,7 6
13.02.2020 01:00:00 0,1 -0,4 14 8 - - WSW 1019,6 7
13.02.2020 00:00:00 0,4 -0,2 14 8 - - WSW 1019,8 11
12.02.2020 23:00:00 0,4 0,0 22 12 - - WSW 1019,9 6
12.02.2020 22:00:00 0,0 -0,4 22 12 - - WSW 1020,2 6
12.02.2020 21:00:00 0,2 -0,7 14 8 - - SW 1019,9 20
12.02.2020 20:00:00 0,6 -0,4 18 10 - - WSW 1019,7 20
12.02.2020 19:00:00 0,2 -0,7 14 8 - - WSW 1019,4 20
12.02.2020 18:00:00 0,6 -0,4 18 10 - - WSW 1018,6 20
12.02.2020 17:00:00 1,7 -0,8 22 12 47 25 WSW 1017,7 6
12.02.2020 16:00:00 2,5 -0,4 25 14 - - W 1017,1 30
12.02.2020 15:00:00 2,7 -0,1 24 13 - - W 1017,1 6
12.02.2020 14:00:00 1,8 -0,7 22 12 - - W 1017,2 15
12.02.2020 13:00:00 2,1 -0,4 25 14 - - WSW 1017,0 15
12.02.2020 12:00:00 1,3 -0,2 22 12 - - WSW 1017,4 6
12.02.2020 11:00:00 0,2 -0,7 26 14 - - W 1017,1 3,0
12.02.2020 10:00:00 1,2 -0,6 22 12 - - WSW 1016,4 10

tt = temperature
td = dewpoint
ff = wind speed
fx = gusts
dd = wind direction
ppp = reduced air pressure
vv = visibility

Next stations